Minot AFB, ND

1:15 AM CST on November 15, 2019 (GMT -0600)
Minot Air Force Base

Weather History for KMIB - September, 2019

Change the Weather History Date:

Thursday, September 19, 2019

  Actual Average Record
Temperature  
Mean Temperature 62 °F -  
Max Temperature 77 °F 65 °F 80 °F (2004)
Min Temperature 49 °F 40 °F 30 °F (2003)
Degree Days  
Heating Degree Days 2    
Growing Degree Days 12 (Base 50)    
Moisture  
Dew Point 56 °F    
Average Humidity 91    
Maximum Humidity 100    
Minimum Humidity 58    
Precipitation  
Precipitation 0.00 in - - ()
Sea Level Pressure  
Sea Level Pressure 29.94 in    
Wind  
Wind Speed 5 mph (ESE)    
Max Wind Speed 21 mph    
Max Gust Speed 25 mph    
Visibility 6 miles    
Events Fog    
Averages and records for this station are not official NWS values.
T = Trace of Precipitation, MM = Missing Value Source: NWS Daily Summary

Daily Weather History Graph

Daily Weather History Graph

Search for Another Location

Airport or City:

Astronomy

Sep. 19, 2019 Rise Set
Actual Time 7:27 AM CDT 7:49 PM CDT
Civil Twilight 6:56 AM CDT 8:21 PM CDT
Nautical Twilight 6:19 AM CDT 8:58 PM CDT
Astronomical Twilight 5:40 AM CDT 9:36 PM CDT
Moon 10:35 PM CDT (9/19) 12:56 PM CDT (9/19)
Length of Visible Light 13h 24m
Length of Day
12h 22m
Waning Gibbous, 74% of the Moon is Illuminated
Sep 19
Waning Gibbous
Sep 21
Last Quarter
Sep 28
New
Oct 5
First Quarter
Oct 13
Full

Hourly Weather History & Observations

Time (CDT) Temp. Dew Point Humidity Pressure Visibility Wind Dir Wind Speed Gust Speed Precip Events Conditions
12:56 AM 53.4 °F 51.4 °F 93% 29.93 in 10.0 mi Calm Calm - N/A   Clear
1:56 AM 55.0 °F 51.6 °F 88% 29.93 in 10.0 mi Calm Calm - N/A   Clear
2:56 AM 54.7 °F 51.4 °F 89% 29.93 in 10.0 mi NE 4.6 mph - N/A   Clear
3:56 AM 53.1 °F 51.4 °F 94% 29.94 in 10.0 mi Calm Calm - N/A   Clear
4:56 AM 49.8 °F 48.4 °F 95% 29.94 in 10.0 mi Calm Calm - N/A   Clear
5:36 AM 50.0 °F 48.2 °F 94% 29.94 in 0.2 mi Calm Calm - N/A Fog Fog
5:46 AM 50.0 °F 48.2 °F 94% 29.94 in 0.5 mi Calm Calm - N/A Fog Fog
5:56 AM 50.5 °F 49.5 °F 96% 29.94 in 0.4 mi Calm Calm - N/A Fog Fog
6:06 AM 51.8 °F 50.0 °F 94% 29.94 in 1.1 mi Calm Calm - N/A   Clear
6:16 AM 51.8 °F 50.0 °F 94% 29.94 in 0.4 mi Calm Calm - N/A Fog Fog
6:51 AM 50.0 °F 50.0 °F 100% 29.96 in 0.1 mi Calm Calm - N/A Fog Fog
6:56 AM 50.7 °F 50.2 °F 98% 29.96 in 0.2 mi Calm Calm - N/A Fog Fog
7:06 AM 51.8 °F 50.0 °F 94% 29.96 in 0.4 mi ESE 5.8 mph - N/A Fog Fog
7:16 AM 50.0 °F 50.0 °F 100% 29.96 in 0.1 mi SE 4.6 mph - N/A Fog Fog
7:26 AM 50.0 °F 50.0 °F 100% 29.96 in - SE 3.5 mph - N/A Fog Fog
7:36 AM 51.8 °F 50.0 °F 94% 29.96 in 0.1 mi SE 5.8 mph - N/A Fog Fog
7:56 AM 51.6 °F 51.3 °F 99% 29.96 in - ESE 4.6 mph - N/A Fog Fog
8:06 AM 53.6 °F 53.6 °F 100% 29.97 in - ESE 6.9 mph - N/A Fog Fog
8:36 AM 55.4 °F 53.6 °F 94% 29.98 in 0.1 mi East 6.9 mph - N/A Fog Fog
8:46 AM 55.4 °F 55.4 °F 100% 29.98 in 0.2 mi East 9.2 mph - N/A Fog Fog
8:56 AM 55.0 °F 54.7 °F 99% 29.98 in 0.2 mi ESE 11.5 mph - N/A Fog Fog
9:06 AM 55.4 °F 55.4 °F 100% 29.98 in 0.2 mi East 11.5 mph - N/A Fog Fog
9:36 AM 55.4 °F 55.4 °F 100% 29.99 in 0.2 mi East 10.4 mph - N/A Fog Fog
9:46 AM 57.2 °F 55.4 °F 94% 29.99 in 0.2 mi ESE 11.5 mph - N/A Fog Fog
9:51 AM 57.2 °F 55.4 °F 94% 29.98 in 0.4 mi East 11.5 mph - N/A Fog Fog
9:56 AM 56.7 °F 56.3 °F 99% 29.98 in 0.5 mi East 12.7 mph - N/A Fog Fog
10:06 AM 57.2 °F 57.2 °F 100% 29.98 in 1.4 mi East 11.5 mph - N/A   Overcast
10:16 AM 57.2 °F 57.2 °F 100% 29.99 in 2.2 mi ESE 11.5 mph - N/A   Overcast
10:36 AM 59.0 °F 59.0 °F 100% 29.98 in 7.0 mi ESE 12.7 mph - N/A   Overcast
10:56 AM 59.5 °F 59.2 °F 99% 29.99 in 10.0 mi ESE 10.4 mph - N/A   Overcast
11:11 AM 60.8 °F 60.8 °F 100% 29.99 in 10.0 mi ESE 12.7 mph - N/A   Overcast
11:31 AM 62.6 °F 62.6 °F 100% 29.98 in 10.0 mi ESE 11.5 mph - N/A   Overcast
11:46 AM 62.6 °F 62.6 °F 100% 29.98 in 10.0 mi East 10.4 mph - N/A   Overcast
11:56 AM 64.6 °F 64.6 °F 100% 29.98 in 10.0 mi East 9.2 mph - N/A   Mostly Cloudy
12:01 PM 64.4 °F 64.4 °F 100% 29.98 in 10.0 mi ESE 12.7 mph - N/A   Scattered Clouds
12:56 PM 70.9 °F 60.6 °F 70% 29.96 in 10.0 mi East 10.4 mph - N/A   Clear
1:56 PM 73.8 °F 60.3 °F 63% 29.93 in 10.0 mi ESE 12.7 mph - N/A   Clear
2:56 PM 75.6 °F 60.6 °F 60% 29.91 in 10.0 mi East 17.3 mph - N/A   Clear
4:56 PM 76.6 °F 60.8 °F 58% 29.86 in 10.0 mi ESE 19.6 mph - N/A   Clear
5:56 PM 75.7 °F 61.3 °F 61% 29.86 in 10.0 mi ESE 20.7 mph - N/A   Clear
6:56 PM 73.9 °F 61.3 °F 65% 29.83 in 10.0 mi East 18.4 mph 25.3 mph N/A   Clear
7:56 PM 69.6 °F 61.0 °F 74% 29.85 in 10.0 mi East 11.5 mph - N/A   Clear
8:56 PM 66.6 °F 60.3 °F 80% 29.85 in 10.0 mi ESE 12.7 mph - N/A   Clear
9:56 PM 64.4 °F 59.7 °F 85% 29.86 in 10.0 mi ESE 11.5 mph - N/A   Clear
10:56 PM 62.4 °F 59.7 °F 91% 29.84 in 10.0 mi ESE 11.5 mph - N/A   Clear
11:56 PM 62.6 °F 60.4 °F 93% 29.81 in 10.0 mi ESE 12.7 mph - N/A   Clear